EW7643 Weather Reports


Display with metric or nautical units.
time (UTC)temp
F
wind
direction
speed
MPH
gust
MPH
rain 1hr
in
rain 24hr
in
rain mn
in
humidity
%
barometer
mb
20260510054522 75 120 0.0 0.0 0.00 0.01 0.00 73 1011.6
20260510053028 75 100 0.0 0.0 0.00 0.01 0.00 73 1011.7
20260510051528 76 77 0.0 0.0 0.00 0.01 0.00 74 1011.8
20260510050016 76 70 0.0 0.0 0.00 0.01 0.00 75 1012.0
20260510044524 76 68 0.0 0.0 0.00 0.01 0.01 74 1012.1
20260510043026 76 74 0.0 4.0 0.00 0.01 0.01 73 1012.2
20260510041530 76 59 0.0 3.0 0.01 0.01 0.01 73 1012.2
20260510040028 76 49 0.0 5.0 0.01 0.01 0.01 73 1012.3
20260510034518 76 68 0.0 0.0 0.01 0.01 0.01 73 1012.0
20260510033024 77 99 0.0 8.0 0.01 0.01 0.01 74 1011.9
20260510031536 78 25 0.0 0.0 0.00 0.00 0.00 76 1012.3
20260510030027 78 39 0.0 0.0 0.00 0.00 0.00 77 1012.0
20260510024535 78 55 0.0 0.0 0.00 0.00 0.00 77 1011.9
20260510023035 78 71 0.0 0.0 0.00 0.00 0.00 78 1011.4
20260510021526 79 81 0.0 0.0 0.00 0.00 0.00 78 1011.3
20260510020028 79 70 0.0 0.0 0.00 0.00 0.00 77 1010.5
20260510014527 80 90 0.0 0.0 0.00 0.00 0.00 75 1009.9
20260510013027 80 113 0.0 0.0 0.00 0.00 0.00 74 1009.7
20260510011525 81 73 0.0 0.0 0.00 0.00 0.00 73 1009.5
20260510010011 82 120 0.0 0.0 0.00 0.00 0.00 70 1008.8
20260510004509 83 113 0.0 0.0 0.00 0.00 0.00 63 1008.8
20260510003016 84 7 0.0 0.0 0.00 0.00 0.00 55 1008.9
20260510001519 85 127 0.0 0.0 0.00 0.00 0.00 53 1008.8
20260510000026 86 106 0.0 0.0 0.00 0.00 0.00 54 1008.6
20260509234506 87 357 0.0 0.0 0.00 0.00 0.00 52 1008.3
20260509233009 88 61 0.0 5.0 0.00 0.00 0.00 62 1008.2
20260509231514 91 116 0.0 1.0 0.00 0.00 0.00 57 1008.2
20260509230017 92 117 0.0 3.0 0.00 0.00 0.00 51 1008.2
20260509224523 91 108 0.0 0.0 0.00 0.00 0.00 52 1008.0
20260509223007 92 119 0.0 0.0 0.00 0.00 0.00 53 1008.0
20260509221512 92 106 0.0 0.0 0.00 0.00 0.00 55 1007.8
20260509220016 93 268 0.0 0.0 0.00 0.00 0.00 49 1007.8
20260509214521 93 131 0.0 0.0 0.00 0.00 0.00 50 1007.8
20260509213024 92 105 0.0 0.0 0.00 0.00 0.00 50 1007.8
20260509211507 93 105 0.0 0.0 0.00 0.00 0.00 51 1007.8
20260509210015 93 241 0.0 0.0 0.00 0.00 0.00 51 1007.9
20260509204519 92 94 0.0 0.0 0.00 0.00 0.00 52 1008.1
20260509203034 92 88 0.0 0.0 0.00 0.00 0.00 53 1008.3
20260509201524 93 176 0.0 0.0 0.00 0.00 0.00 51 1008.5
20260509200008 91 160 0.0 0.0 0.00 0.00 0.00 56 1008.7
20260509194514 91 240 0.0 0.0 0.00 0.00 0.00 53 1008.8
20260509193020 92 246 0.0 0.0 0.00 0.00 0.00 55 1008.7
20260509191521 90 162 0.0 0.0 0.00 0.00 0.00 58 1008.8
20260509190025 89 321 0.0 0.0 0.00 0.01 0.00 57 1009.1
20260509184509 88 111 0.0 0.0 0.00 0.01 0.00 60 1009.0
20260509183021 88 8 0.0 0.0 0.00 0.01 0.00 64 1009.4
20260509181520 87 18 0.0 0.0 0.00 0.01 0.00 66 1009.7
20260509180025 85 155 0.0 0.0 0.00 0.01 0.00 70 1010.0
20260509174525 83 176 0.0 0.0 0.00 0.01 0.00 75 1010.7
20260509173013 82 106 0.0 0.0 0.00 0.01 0.00 76 1010.8
20260509171518 82 118 0.0 0.0 0.00 0.01 0.00 78 1010.8
20260509170021 82 110 0.0 0.0 0.00 0.02 0.00 78 1010.8
20260509164526 82 268 0.0 0.0 0.00 0.02 0.00 78 1010.9
20260509163045 83 152 0.0 0.0 0.00 0.02 0.00 78 1010.8
20260509161518 83 223 0.0 0.0 0.00 0.02 0.00 77 1010.6
20260509160020 81 47 0.0 0.0 0.00 0.02 0.00 79 1010.5
20260509154524 80 184 0.0 0.0 0.00 0.02 0.00 79 1010.6
20260509153018 79 115 0.0 0.0 0.00 0.02 0.00 77 1010.4
20260509151514 78 110 0.0 0.0 0.00 0.02 0.00 73 1010.3
20260509150021 77 110 0.0 0.0 0.00 0.02 0.00 73 1010.2
20260509144524 77 110 0.0 0.0 0.00 0.02 0.00 71 1010.6
20260509143028 77 122 0.0 0.0 0.00 0.02 0.00 70 1010.5
20260509141517 77 117 0.0 0.0 0.00 0.02 0.00 65 1010.6
20260509140013 76 142 0.0 0.0 0.00 0.02 0.00 63 1010.4
20260509134520 76 197 0.0 0.0 0.00 0.02 0.00 63 1010.5
20260509133025 76 189 0.0 0.0 0.00 0.02 0.00 63 1010.4
20260509131531 75 203 0.0 0.0 0.00 0.02 0.00 64 1010.7
20260509130017 75 106 0.0 0.0 0.00 0.02 0.00 64 1010.4
20260509124516 75 81 0.0 0.0 0.00 0.02 0.00 64 1010.6
20260509123028 0 0.0 0.0 0.00 0.02 0.00 1010.6
20260509121531 0 0.0 0.0 0.00 0.02 0.00 1010.4
20260509120034 0 0.0 0.0 0.00 0.02 0.00 1010.4
20260509114533 0 0.0 0.0 0.00 0.02 0.00 1010.5
20260509113030 0 0.0 0.0 0.00 0.02 0.00 1010.3
20260509111530 0 0.0 0.0 0.00 0.02 0.00 1010.3
20260509110029 0 0.0 0.0 0.00 0.02 0.00 1010.0
20260509104535 0 0.0 0.0 0.00 0.02 0.00 1009.9
20260509103030 0 0.0 0.0 0.00 0.02 0.00 1009.9
20260509101531 0 0.0 0.0 0.00 0.02 0.00 1009.8
20260509100030 0 0.0 0.0 0.00 0.02 0.00 1009.9
20260509094528 0 0.0 0.0 0.00 0.02 0.00 1009.7
20260509093028 0 0.0 0.0 0.00 0.02 0.00 1009.6
20260509091534 0 0.0 0.0 0.00 0.02 0.00 1009.4
20260509090026 74 82 0.0 0.0 0.00 0.02 0.00 64 1009.6
20260509084526 73 82 0.0 0.0 0.00 0.02 0.00 64 1009.5
20260509083025 73 81 0.0 0.0 0.00 0.02 0.00 65 1009.5
20260509081528 73 82 0.0 0.0 0.00 0.02 0.00 65 1009.7
20260509080040 73 82 0.0 0.0 0.00 0.02 0.00 65 1009.6
20260509074529 73 81 0.0 0.0 0.00 0.02 0.00 65 1010.0
20260509073037 73 82 0.0 0.0 0.00 0.02 0.00 65 1010.1
20260509071524 73 81 0.0 0.0 0.00 0.02 0.00 66 1010.2
20260509070028 72 82 0.0 0.0 0.00 0.02 0.00 67 1010.1
20260509064530 73 81 0.0 0.0 0.00 0.02 0.00 68 1010.0
20260509063031 73 82 0.0 0.0 0.00 0.02 0.00 68 1010.1
20260509061523 74 82 0.0 0.0 0.00 0.02 0.00 68 1010.3
20260509060015 75 82 0.0 0.0 0.00 0.02 0.00 68 1010.2